Satellite: PO-28
Catalog number: 22829
Epoch time:      08171.41001182
Element set:     972
Inclination:      098.3646 deg
RA of node:       133.3607 deg
Eccentricity:    0.0009001
Arg of perigee:   219.6067 deg
Mean anomaly:     140.4469 deg
Mean motion:   14.30191485 rev/day
Decay rate:        2.9e-07 rev/day^2
Epoch rev:           76844
Checksum:              300

Satellite: GO-32
Catalog number: 25397
Epoch time:      08170.65730674
Element set:    0627
Inclination:      098.3637 deg
RA of node:       205.7473 deg
Eccentricity:    0.0000584
Arg of perigee:   184.9562 deg
Mean anomaly:     175.1619 deg
Mean motion:   14.23144066 rev/day
Decay rate:       -9.6e-07 rev/day^2
Epoch rev:           51642
Checksum:              322

Satellite: NO-44
Catalog number: 26931
Epoch time:      08171.59450803
Element set:     906
Inclination:      067.0536 deg
RA of node:       278.4535 deg
Eccentricity:    0.0006887
Arg of perigee:   272.7489 deg
Mean anomaly:     087.2820 deg
Mean motion:   14.29525820 rev/day
Decay rate:        7.3e-07 rev/day^2
Epoch rev:           35075
Checksum:              330

Satellite: SO-50
Catalog number: 27607
Epoch time:      08171.72513984
Element set:     631
Inclination:      064.5593 deg
RA of node:       045.9327 deg
Eccentricity:    0.0085807
Arg of perigee:   279.0917 deg
Mean anomaly:     080.0462 deg
Mean motion:   14.71362918 rev/day
Decay rate:       -2.5e-07 rev/day^2
Epoch rev:           29534
Checksum:              322

Satellite: CO-55
Catalog number: 27844
Epoch time:      08171.54976444
Element set:     331
Inclination:      098.7144 deg
RA of node:       179.7831 deg
Eccentricity:    0.0010776
Arg of perigee:   106.2094 deg
Mean anomaly:     254.0283 deg
Mean motion:   14.20584481 rev/day
Decay rate:        4.4e-07 rev/day^2
Epoch rev:           25777
Checksum:              322

Satellite: CO-57
Catalog number: 27848
Epoch time:      08170.56197209
Element set:    0283
Inclination:      098.7156 deg
RA of node:       177.9053 deg
Eccentricity:    0.0010520
Arg of perigee:   112.2502 deg
Mean anomaly:     247.9803 deg
Mean motion:   14.20392734 rev/day
Decay rate:        2.5e-07 rev/day^2
Epoch rev:           25760
Checksum:              304

Satellite: AO-51
Catalog number: 28375
Epoch time:      08170.57685690
Element set:     127
Inclination:      098.0704 deg
RA of node:       195.0695 deg
Eccentricity:    0.0083914
Arg of perigee:   147.8771 deg
Mean anomaly:     212.7574 deg
Mean motion:   14.40611176 rev/day
Decay rate:        1.4e-07 rev/day^2
Epoch rev:           20860
Checksum:              317

Satellite: CO-56
Catalog number: 28941
Epoch time:      08171.76981856
Element set:     146
Inclination:      098.1087 deg
RA of node:       282.8247 deg
Eccentricity:    0.0164992
Arg of perigee:   032.1173 deg
Mean anomaly:     328.9872 deg
Mean motion:   15.57451082 rev/day
Decay rate:     2.3581e-04 rev/day^2
Epoch rev:           13044
Checksum:              343

Satellite: CP4
Catalog number: 31122
Epoch time:      08171.15617614
Element set:     366
Inclination:      098.0426 deg
RA of node:       236.6765 deg
Eccentricity:    0.0084463
Arg of perigee:   323.4296 deg
Mean anomaly:     036.1125 deg
Mean motion:   14.55134289 rev/day
Decay rate:       5.49e-06 rev/day^2
Epoch rev:            6236
Checksum:              298

Satellite: CP3
Catalog number: 31128
Epoch time:      08170.64440964
Element set:    0359
Inclination:      098.0384 deg
RA of node:       234.0202 deg
Eccentricity:    0.0102374
Arg of perigee:   330.9803 deg
Mean anomaly:     028.5749 deg
Mean motion:   14.51953201 rev/day
Decay rate:       -4.8e-07 rev/day^2
Epoch rev:           06214
Checksum:              278

/EX
SB KEPS @ AMSAT  $ORB08171.W
Orbital Elements  08171.WEATHER

HR AMSAT ORBITAL ELEMENTS FOR WEATHER SATELLITES
FROM WA5QGD FORT WORTH,TX June 19, 2008
Send Subscribe/unsubscribe to KEPS at 
http://www.amsat.org/mailman/listinfo/keps
BID: ORB08171.W
TO ALL RADIO AMATEURS BT

Satellite: NOAA-10
Catalog number: 16969
Epoch time:      08171.18750013
Element set:     164
Inclination:      098.7203 deg
RA of node:       193.1530 deg
Eccentricity:    0.0012259
Arg of perigee:   171.3654 deg
Mean anomaly:     188.7741 deg
Mean motion:   14.27361508 rev/day
Decay rate:      -1.16e-06 rev/day^2
Epoch rev:           13172
Checksum:              288

Satellite: NOAA-11
Catalog number: 19531
Epoch time:      08171.14773882
Element set:     203
Inclination:      098.7985 deg
RA of node:       260.4449 deg
Eccentricity:    0.0012419
Arg of perigee:   064.1371 deg
Mean anomaly:     296.1072 deg
Mean motion:   14.14872795 rev/day
Decay rate:       1.58e-06 rev/day^2
Epoch rev:            1818
Checksum:              314

Satellite: NOAA-12
Catalog number: 21263
Epoch time:      08171.16722405
Element set:     719
Inclination:      098.7648 deg
RA of node:       173.1178 deg
Eccentricity:    0.0013376
Arg of perigee:   117.6066 deg
Mean anomaly:     242.6479 deg
Mean motion:   14.25536559 rev/day
Decay rate:       1.16e-06 rev/day^2
Epoch rev:           88867
Checksum:              329

